ARIANE 5 DEB (SYLDA), 45247

Orbit data source: Space-Track

ARIANE 5 DEB (SYLDA), 45247 is space debris in HEO originally from a launch on Tue, 18 Feb 2020 UTC launched from the French Guiana (FRGUI). Debris objects in space refer to the collection of defunct objects orbiting the Earth. Examples of debris include non-operational satellites, rocket bodies, and fragments generated from explosions, collisions, or faulty payload assembly.

Loading next visibility...
Identifier
45247, 2020-013C
Orbit
HEO
Country
Flag of FRFR
Related business
Manufacturer
ADS/Bremen
Mission
Spacecraft
Bus & Motor
SYLDA 5, Unknown motor
Mass
440 kg wet, 440 kg dry
Launch date (UTC)
2020-02-18 (6 years ago)
Launch vehicle
Unknown
Launch site
French Guiana (FRGUI)
Object type
Payload
Rocket body
Debris
Shape & HBR
Cyl, Unknown HBR
Radar Cross Section
27.391 m², Large (>1 m²)

Expand to show TLE details & history
Last TLE update: 2 days ago

TLE from 2 days ago
0 ARIANE 5 DEB (SYLDA)
1 45247U 20013C   25305.81885293  .00027565  00000-0  58118-2 0  9997
2 45247   5.7636 332.3244 6414406 110.1222 326.2317  3.43900257 56059
Epoch: 2025-11-01T19:39Z
TLE epoch observation values (Epoch: 2025-11-01T19:39:08.893Z)
Latitude
-0.00002°
Longitude
-3.96428°
Altitude
7,641.249 km
Speed
5.947 km/s
True Right ascension
22h 08m 39s
True Declination
0° 00' 00"
Sunlit
Object was in daylight at epoch
Visualization orbit readout
Latitude
Unknown
Longitude
Unknown
Altitude
Unknown
Speed
Unknown
Apparent Right ascension
Unknown
Apparent Declination
Unknown
Sunlit
N/A
Visualization observer readout
Local Sidereal Time
00:04:01
Azimuth
Unknown
Elevation
Unknown
Doppler factor
Unknown
Orbital elements
Apogee altitude
24,062.962 km
Perigee altitude
271.474 km
Semi-major axis
18,545.355 km
Eccentricity
0.64144
Inclination
5.7636°
RAAN
332.3244°
Arg. of periapsis
110.1222°
True anomaly
249.64533°
Mean anomaly
326.2317°
Eccentric anomaly
292.20561°
Mean motion
0.85939 °/min
Orbital period
418.9 mins
BSTAR
0.0058118
Loading maneuver chart data...
Computing Atmospheric mass density...
Loading historical data...
Loading historical data...
Loading historical data...
Loading historical data...
Loading historical data...
Loading historical data...
Loading historical data...
Other satellites on launch #13 in the year 2020 (2020-02-18 UTC)

Documentation

Showing up to 5 results
|